Location: Cazarilh
(42.9578°N, 0.5819°E)
Time: 17:56:43
(UTC+00:00)

SL-23 DEB - Pass Details

Date: 11 December 2019
Orbit: 423 x 3606 km, 51.5° (Epoch: 19 January)

Event Time Altitude Azimuth Distance (km) Brightness Sun altitude
Exits shadow 06:23:28 12° 271° (W) 1,373 5.3 -9.8°
Maximum altitude 06:26:03 37° 338° (NNW) 691 4.0 -9.4°
Drops below altitude 10° 06:29:19 10° 49° (NE) 1,685 6.7 -8.8°
Sets 06:31:53 0° 58° (ENE) 2,798 7.9 -8.4°
